| time (UTC) | temp F | wind direction | speed MPH | gust MPH | rain 1hr in | rain 24hr in | rain mn in | humidity % | barometer mb |
| 20260903184024 | 75 | 173 | 0.0 | 6.0 | 0.00 | 0.01 | 0.01 | 85 | 1014.4 |
| 20260903183519 | 75 | 129 | 1.0 | 6.0 | 0.00 | 0.01 | 0.01 | 86 | 1014.6 |
| 20260903183042 | 75 | 284 | 1.0 | 6.0 | 0.00 | 0.01 | 0.01 | 84 | 1014.6 |
| 20260903182527 | 74 | 0 | 0.0 | 3.0 | 0.00 | 0.01 | 0.01 | 88 | 1014.6 |
| 20260903182021 | 74 | 0 | 0.0 | 3.0 | 0.00 | 0.01 | 0.01 | 88 | 1014.7 |
| 20260903181544 | 74 | 131 | 1.0 | 4.0 | 0.00 | 0.01 | 0.01 | 86 | 1014.7 |
| 20260903181026 | 74 | 114 | 0.0 | 4.0 | 0.00 | 0.01 | 0.01 | 89 | 1014.9 |
| 20260903180522 | 74 | 172 | 1.0 | 4.0 | 0.00 | 0.01 | 0.01 | 86 | 1014.8 |
| 20260903180045 | 74 | 0 | 0.0 | 3.0 | 0.00 | 0.01 | 0.01 | 87 | 1014.9 |
| 20260903175520 | 74 | 94 | 0.0 | 3.0 | 0.00 | 0.01 | 0.01 | 85 | 1014.7 |
| 20260903175019 | 74 | 245 | 0.0 | 4.0 | 0.00 | 0.01 | 0.01 | 85 | 1014.8 |
| 20260903174547 | 75 | 116 | 1.0 | 4.0 | 0.00 | 0.01 | 0.01 | 85 | 1014.8 |
| 20260903174023 | 75 | 236 | 1.0 | 4.0 | 0.00 | 0.01 | 0.01 | 85 | 1014.7 |
| 20260903173525 | 74 | 41 | 1.0 | 4.0 | 0.00 | 0.01 | 0.01 | 86 | 1014.8 |
| 20260903173045 | 74 | 148 | 0.0 | 6.0 | 0.00 | 0.01 | 0.01 | 86 | 1014.9 |
| 20260903172525 | 75 | 146 | 0.0 | 6.0 | 0.00 | 0.01 | 0.01 | 85 | 1015.0 |
| 20260903172026 | 75 | 181 | 2.0 | 8.0 | 0.00 | 0.01 | 0.01 | 84 | 1015.1 |
| 20260903171544 | 75 | 172 | 1.0 | 8.0 | 0.00 | 0.01 | 0.01 | 84 | 1015.1 |
| 20260903171020 | 75 | 147 | 2.0 | 8.0 | 0.00 | 0.01 | 0.01 | 84 | 1015.0 |
| 20260903170521 | 74 | 187 | 2.0 | 4.0 | 0.00 | 0.01 | 0.01 | 86 | 1015.1 |
| 20260903170043 | 74 | 190 | 1.0 | 3.0 | 0.00 | 0.01 | 0.01 | 87 | 1015.3 |
| 20260903165525 | 73 | 65 | 1.0 | 3.0 | 0.00 | 0.01 | 0.01 | 88 | 1015.3 |
| 20260903165025 | 73 | 158 | 1.0 | 2.0 | 0.00 | 0.01 | 0.01 | 88 | 1015.5 |
| 20260903164545 | 72 | 224 | 1.0 | 6.0 | 0.00 | 0.01 | 0.01 | 87 | 1015.4 |
| 20260903164027 | 72 | 102 | 2.0 | 6.0 | 0.00 | 0.01 | 0.01 | 87 | 1015.5 |
| 20260903163528 | 73 | 224 | 1.0 | 6.0 | 0.00 | 0.01 | 0.01 | 88 | 1015.6 |
| 20260903163044 | 73 | 112 | 2.0 | 6.0 | 0.00 | 0.01 | 0.01 | 86 | 1015.5 |
| 20260903162527 | 73 | 57 | 2.0 | 5.0 | 0.00 | 0.01 | 0.01 | 85 | 1015.5 |
| 20260903162029 | 74 | 134 | 1.0 | 5.0 | 0.00 | 0.01 | 0.01 | 87 | 1015.4 |
| 20260903161541 | 73 | 225 | 1.0 | 9.0 | 0.00 | 0.01 | 0.01 | 86 | 1015.5 |
| 20260903161024 | 73 | 178 | 3.0 | 9.0 | 0.00 | 0.01 | 0.01 | 85 | 1015.4 |
| 20260903160524 | 73 | 101 | 1.0 | 9.0 | 0.00 | 0.01 | 0.01 | 86 | 1015.5 |
| 20260903160046 | 73 | 206 | 3.0 | 7.0 | 0.00 | 0.01 | 0.01 | 85 | 1015.5 |
| 20260903155524 | 74 | 103 | 2.0 | 7.0 | 0.00 | 0.01 | 0.01 | 85 | 1015.5 |
| 20260903155024 | 74 | 169 | 2.0 | 7.0 | 0.00 | 0.01 | 0.01 | 84 | 1015.4 |
| 20260903154546 | 74 | 199 | 3.0 | 7.0 | 0.00 | 0.01 | 0.01 | 88 | 1015.3 |
| 20260903154029 | 73 | 147 | 2.0 | 5.0 | 0.00 | 0.01 | 0.01 | 87 | 1015.4 |
| 20260903153524 | 72 | 248 | 1.0 | 2.0 | 0.00 | 0.01 | 0.01 | 89 | 1015.6 |
| 20260903153043 | 72 | 232 | 1.0 | 3.0 | 0.00 | 0.01 | 0.01 | 90 | 1015.6 |
| 20260903152521 | 72 | 246 | 1.0 | 3.0 | 0.00 | 0.01 | 0.01 | 89 | 1015.6 |
| 20260903152027 | 71 | 139 | 0.0 | 3.0 | 0.00 | 0.01 | 0.01 | 91 | 1015.5 |
| 20260903151541 | 71 | 121 | 0.0 | 3.0 | 0.00 | 0.01 | 0.01 | 90 | 1015.6 |
| 20260903151025 | 70 | 158 | 1.0 | 3.0 | 0.00 | 0.01 | 0.01 | 91 | 1015.7 |
| 20260903150526 | 70 | 0 | 0.0 | 0.0 | 0.00 | 0.01 | 0.01 | 94 | 1015.6 |
| 20260903150057 | 69 | 0 | 0.0 | 1.0 | 0.00 | 0.01 | 0.01 | 94 | 1015.7 |
| 20260903145525 | 69 | 0 | 0.0 | 2.0 | 0.00 | 0.01 | 0.01 | 93 | 1015.7 |
| 20260903145026 | 69 | 0 | 0.0 | 2.0 | 0.00 | 0.01 | 0.01 | 93 | 1015.8 |
| 20260903144543 | 69 | 189 | 0.0 | 2.0 | 0.00 | 0.01 | 0.01 | 94 | 1015.8 |
| 20260903144021 | 69 | 215 | 1.0 | 2.0 | 0.00 | 0.01 | 0.01 | 93 | 1016.0 |
| 20260903143521 | 69 | 0 | 0.0 | 2.0 | 0.00 | 0.01 | 0.01 | 94 | 1016.0 |
| 20260903143040 | 69 | 0 | 0.0 | 1.0 | 0.00 | 0.01 | 0.01 | 94 | 1015.8 |
| 20260903142524 | 68 | 0 | 0.0 | 0.0 | 0.00 | 0.01 | 0.01 | 95 | 1015.9 |
| 20260903142025 | 68 | 0 | 0.0 | 0.0 | 0.00 | 0.01 | 0.01 | 96 | 1015.9 |
| 20260903141545 | 68 | 0 | 0.0 | 1.0 | 0.00 | 0.01 | 0.01 | 97 | 1015.9 |
| 20260903141023 | 68 | 0 | 0.0 | 1.0 | 0.00 | 0.01 | 0.01 | 97 | 1016.0 |
| 20260903140525 | 67 | 171 | 0.0 | 2.0 | 0.00 | 0.01 | 0.01 | 97 | 1016.0 |
| 20260903140047 | 67 | 172 | 0.0 | 2.0 | 0.00 | 0.01 | 0.01 | 97 | 1015.9 |
| 20260903135525 | 67 | 0 | 0.0 | 0.0 | 0.00 | 0.01 | 0.01 | 98 | 1016.0 |
| 20260903135021 | 67 | 0 | 0.0 | 0.0 | 0.00 | 0.01 | 0.01 | 98 | 1015.9 |
| 20260903134546 | 67 | 0 | 0.0 | 0.0 | 0.00 | 0.01 | 0.01 | 98 | 1015.9 |
| 20260903134021 | 66 | 0 | 0.0 | 0.0 | 0.00 | 0.01 | 0.01 | 98 | 1015.9 |
| 20260903133523 | 66 | 0 | 0.0 | 0.0 | 0.00 | 0.01 | 0.01 | 98 | 1016.0 |
| 20260903133041 | 66 | 0 | 0.0 | 0.0 | 0.00 | 0.01 | 0.01 | 98 | 1015.9 |
| 20260903132519 | 65 | 0 | 0.0 | 0.0 | 0.00 | 0.01 | 0.01 | 98 | 1015.9 |
| 20260903132017 | 65 | 0 | 0.0 | 0.0 | 0.00 | 0.01 | 0.01 | 98 | 1016.0 |
| 20260903131553 | 65 | 0 | 0.0 | 0.0 | 0.00 | 0.01 | 0.01 | 98 | 1016.1 |
| 20260903131024 | 65 | 0 | 0.0 | 0.0 | 0.00 | 0.01 | 0.01 | 98 | 1016.1 |
| 20260903130526 | 65 | 0 | 0.0 | 0.0 | 0.00 | 0.01 | 0.01 | 98 | 1016.1 |
| 20260903130044 | 65 | 0 | 0.0 | 0.0 | 0.00 | 0.01 | 0.01 | 98 | 1016.0 |
| 20260903125524 | 65 | 0 | 0.0 | 0.0 | 0.00 | 0.01 | 0.01 | 98 | 1016.1 |
| 20260903125023 | 65 | 0 | 0.0 | 0.0 | 0.00 | 0.01 | 0.01 | 98 | 1016.2 |
| 20260903124542 | 65 | 0 | 0.0 | 0.0 | 0.00 | 0.01 | 0.01 | 98 | 1016.0 |
| 20260903124020 | 65 | 0 | 0.0 | 0.0 | 0.00 | 0.01 | 0.01 | 98 | 1016.1 |
| 20260903123521 | 65 | 0 | 0.0 | 0.0 | 0.00 | 0.01 | 0.01 | 98 | 1016.2 |
| 20260903123044 | 64 | 0 | 0.0 | 0.0 | 0.00 | 0.01 | 0.01 | 98 | 1016.2 |
| 20260903122520 | 64 | 0 | 0.0 | 0.0 | 0.00 | 0.01 | 0.01 | 98 | 1016.2 |
| 20260903122020 | 64 | 0 | 0.0 | 0.0 | 0.00 | 0.01 | 0.01 | 98 | 1016.3 |
| 20260903121553 | 64 | 0 | 0.0 | 0.0 | 0.00 | 0.01 | 0.01 | 98 | 1016.2 |
| 20260903121022 | 64 | 0 | 0.0 | 0.0 | 0.00 | 0.01 | 0.01 | 98 | 1016.2 |
| 20260903120523 | 64 | 0 | 0.0 | 0.0 | 0.00 | 0.01 | 0.01 | 98 | 1016.3 |
| 20260903120038 | 64 | 0 | 0.0 | 0.0 | 0.00 | 0.01 | 0.01 | 98 | 1016.3 |
| 20260903115523 | 64 | 0 | 0.0 | 0.0 | 0.00 | 0.01 | 0.01 | 98 | 1016.3 |
| 20260903115026 | 64 | 0 | 0.0 | 0.0 | 0.00 | 0.01 | 0.01 | 98 | 1016.4 |
| 20260903114540 | 64 | 0 | 0.0 | 0.0 | 0.00 | 0.01 | 0.01 | 98 | 1016.4 |
| 20260903114020 | 64 | 0 | 0.0 | 0.0 | 0.00 | 0.01 | 0.01 | 98 | 1016.4 |
| 20260903113519 | 64 | 0 | 0.0 | 0.0 | 0.00 | 0.01 | 0.01 | 98 | 1016.5 |
| 20260903113042 | 64 | 0 | 0.0 | 0.0 | 0.00 | 0.01 | 0.01 | 98 | 1016.6 |
| 20260903112522 | 64 | 0 | 0.0 | 0.0 | 0.00 | 0.01 | 0.01 | 98 | 1016.5 |
| 20260903112018 | 64 | 0 | 0.0 | 0.0 | 0.00 | 0.01 | 0.01 | 98 | 1016.4 |
| 20260903111545 | 64 | 0 | 0.0 | 0.0 | 0.00 | 0.01 | 0.01 | 98 | 1016.5 |
| 20260903111023 | 64 | 0 | 0.0 | 0.0 | 0.00 | 0.01 | 0.01 | 98 | 1016.4 |
| 20260903110521 | 64 | 0 | 0.0 | 0.0 | 0.01 | 0.01 | 0.01 | 98 | 1016.4 |
| 20260903110043 | 64 | 0 | 0.0 | 0.0 | 0.01 | 0.01 | 0.01 | 98 | 1016.4 |
| 20260903105518 | 64 | 0 | 0.0 | 0.0 | 0.01 | 0.01 | 0.01 | 98 | 1016.4 |
| 20260903105020 | 64 | 0 | 0.0 | 0.0 | 0.01 | 0.01 | 0.01 | 98 | 1016.3 |
| 20260903104552 | 64 | 0 | 0.0 | 0.0 | 0.01 | 0.01 | 0.01 | 98 | 1016.5 |
| 20260903104021 | 64 | 0 | 0.0 | 0.0 | 0.01 | 0.01 | 0.01 | 98 | 1016.3 |
| 20260903103523 | 64 | 0 | 0.0 | 0.0 | 0.01 | 0.01 | 0.01 | 98 | 1016.4 |
| 20260903103041 | 64 | 0 | 0.0 | 0.0 | 0.01 | 0.01 | 0.01 | 98 | 1016.4 |
| 20260903102518 | 64 | 0 | 0.0 | 0.0 | 0.01 | 0.01 | 0.01 | 97 | 1016.4 |
| 20260903102020 | 64 | 0 | 0.0 | 0.0 | 0.01 | 0.01 | 0.01 | 97 | 1016.4 |
| 20260903101548 | 64 | 0 | 0.0 | 0.0 | 0.01 | 0.01 | 0.01 | 97 | 1016.3 |
| 20260903101019 | 64 | 0 | 0.0 | 0.0 | 0.01 | 0.01 | 0.01 | 97 | 1016.3 |
| 20260903100522 | 64 | 0 | 0.0 | 0.0 | 0.00 | 0.00 | 0.00 | 97 | 1016.2 |
| 20260903100044 | 64 | 0 | 0.0 | 0.0 | 0.00 | 0.00 | 0.00 | 97 | 1016.2 |
| 20260903095522 | 64 | 0 | 0.0 | 0.0 | 0.00 | 0.00 | 0.00 | 97 | 1016.2 |
| 20260903095022 | 64 | 0 | 0.0 | 0.0 | 0.00 | 0.00 | 0.00 | 97 | 1016.3 |
| 20260903094549 | 64 | 0 | 0.0 | 1.0 | 0.00 | 0.00 | 0.00 | 97 | 1016.3 |
| 20260903094023 | 64 | 0 | 0.0 | 1.0 | 0.00 | 0.00 | 0.00 | 97 | 1016.3 |
| 20260903093527 | 64 | 262 | 0.0 | 1.0 | 0.00 | 0.00 | 0.00 | 97 | 1016.2 |
| 20260903093042 | 64 | 0 | 0.0 | 1.0 | 0.00 | 0.00 | 0.00 | 96 | 1016.2 |
| 20260903092519 | 64 | 247 | 0.0 | 1.0 | 0.00 | 0.00 | 0.00 | 96 | 1016.2 |
| 20260903092018 | 64 | 247 | 0.0 | 2.0 | 0.00 | 0.00 | 0.00 | 96 | 1016.3 |
| 20260903091552 | 64 | 30 | 0.0 | 6.0 | 0.00 | 0.00 | 0.00 | 96 | 1016.4 |
| 20260903091023 | 64 | 274 | 1.0 | 6.0 | 0.00 | 0.00 | 0.00 | 96 | 1016.3 |
| 20260903090519 | 64 | 0 | 0.0 | 2.0 | 0.00 | 0.00 | 0.00 | 95 | 1016.3 |
| 20260903090044 | 64 | 218 | 0.0 | 1.0 | 0.00 | 0.00 | 0.00 | 95 | 1016.2 |
| 20260903085520 | 64 | 96 | 0.0 | 1.0 | 0.00 | 0.00 | 0.00 | 95 | 1016.2 |
| 20260903085019 | 64 | 0 | 0.0 | 2.0 | 0.00 | 0.00 | 0.00 | 95 | 1016.3 |
| 20260903084544 | 64 | 95 | 0.0 | 2.0 | 0.00 | 0.00 | 0.00 | 95 | 1016.3 |
| 20260903084021 | 64 | 96 | 0.0 | 2.0 | 0.00 | 0.00 | 0.00 | 95 | 1016.4 |
| 20260903083518 | 64 | 0 | 0.0 | 2.0 | 0.00 | 0.00 | 0.00 | 95 | 1016.4 |
| 20260903083045 | 64 | 0 | 0.0 | 2.0 | 0.00 | 0.00 | 0.00 | 95 | 1016.4 |
| 20260903082519 | 64 | 108 | 0.0 | 2.0 | 0.00 | 0.00 | 0.00 | 95 | 1016.5 |
| 20260903082024 | 64 | 0 | 0.0 | 0.0 | 0.00 | 0.00 | 0.00 | 95 | 1016.4 |
| 20260903081540 | 64 | 0 | 0.0 | 0.0 | 0.00 | 0.00 | 0.00 | 95 | 1016.5 |
| 20260903081022 | 64 | 0 | 0.0 | 0.0 | 0.00 | 0.00 | 0.00 | 95 | 1016.8 |
| 20260903080527 | 64 | 0 | 0.0 | 0.0 | 0.00 | 0.00 | 0.00 | 95 | 1016.7 |
| 20260903080044 | 64 | 0 | 0.0 | 0.0 | 0.00 | 0.00 | 0.00 | 94 | 1016.6 |
| 20260903075526 | 64 | 0 | 0.0 | 0.0 | 0.00 | 0.00 | 0.00 | 94 | 1016.5 |
| 20260903075021 | 64 | 0 | 0.0 | 0.0 | 0.00 | 0.00 | 0.00 | 94 | 1016.3 |
| 20260903074542 | 64 | 0 | 0.0 | 0.0 | 0.00 | 0.00 | 0.00 | 94 | 1016.4 |
| 20260903074018 | 64 | 0 | 0.0 | 2.0 | 0.00 | 0.00 | 0.00 | 94 | 1016.5 |
| 20260903073518 | 64 | 0 | 0.0 | 2.0 | 0.00 | 0.00 | 0.00 | 94 | 1016.6 |
| 20260903073041 | 64 | 285 | 0.0 | 2.0 | 0.00 | 0.00 | 0.00 | 94 | 1016.5 |
| 20260903072524 | 64 | 142 | 1.0 | 2.0 | 0.00 | 0.00 | 0.00 | 94 | 1016.7 |
| 20260903072024 | 63 | 0 | 0.0 | 1.0 | 0.00 | 0.00 | 0.00 | 95 | 1016.6 |
| 20260903071543 | 63 | 0 | 0.0 | 1.0 | 0.00 | 0.00 | 0.00 | 95 | 1016.5 |
| 20260903071020 | 63 | 0 | 0.0 | 0.0 | 0.00 | 0.00 | 0.00 | 95 | 1016.6 |
| 20260903070519 | 63 | 0 | 0.0 | 0.0 | 0.00 | 0.00 | 0.00 | 95 | 1016.5 |
| 20260903070041 | 63 | 0 | 0.0 | 0.0 | 0.00 | 0.00 | 0.00 | 94 | 1016.6 |
| 20260903065519 | 63 | 0 | 0.0 | 0.0 | 0.00 | 0.00 | 0.00 | 94 | 1016.7 |
| 20260903065017 | 63 | 0 | 0.0 | 1.0 | 0.00 | 0.00 | 0.00 | 94 | 1016.7 |
| 20260903064541 | 63 | 79 | 0.0 | 1.0 | 0.00 | 0.00 | 0.00 | 93 | 1016.8 |
| 20260903064024 | 63 | 81 | 0.0 | 1.0 | 0.00 | 0.00 | 0.00 | 93 | 1016.9 |
| 20260903063521 | 63 | 79 | 0.0 | 1.0 | 0.00 | 0.00 | 0.00 | 94 | 1016.9 |
| 20260903063044 | 63 | 0 | 0.0 | 2.0 | 0.00 | 0.00 | 0.00 | 94 | 1016.9 |
| 20260903062523 | 63 | 80 | 0.0 | 2.0 | 0.00 | 0.00 | 0.00 | 93 | 1016.7 |
| 20260903062021 | 63 | 0 | 0.0 | 1.0 | 0.00 | 0.00 | 0.00 | 94 | 1016.8 |
| 20260903061549 | 63 | 0 | 0.0 | 3.0 | 0.00 | 0.00 | 0.00 | 93 | 1016.9 |
| 20260903061021 | 63 | 123 | 0.0 | 3.0 | 0.00 | 0.00 | 0.00 | 94 | 1017.0 |
| 20260903060519 | 63 | 121 | 1.0 | 2.0 | 0.00 | 0.00 | 0.00 | 94 | 1017.3 |
| 20260903060057 | 63 | 13 | 0.0 | 3.0 | 0.00 | 0.00 | 0.00 | 94 | 1017.4 |
| 20260903055519 | 63 | 271 | 1.0 | 3.0 | 0.00 | 0.00 | 0.00 | 94 | 1017.4 |
| 20260903055024 | 63 | 0 | 0.0 | 1.0 | 0.00 | 0.00 | 0.00 | 94 | 1017.4 |
| 20260903054544 | 63 | 0 | 0.0 | 1.0 | 0.00 | 0.00 | 0.00 | 94 | 1017.3 |
| 20260903054023 | 63 | 0 | 0.0 | 0.0 | 0.00 | 0.00 | 0.00 | 93 | 1017.4 |
| 20260903053521 | 63 | 0 | 0.0 | 0.0 | 0.00 | 0.00 | 0.00 | 94 | 1017.5 |
| 20260903053044 | 63 | 0 | 0.0 | 0.0 | 0.00 | 0.00 | 0.00 | 94 | 1017.8 |
| 20260903052524 | 63 | 0 | 0.0 | 0.0 | 0.00 | 0.00 | 0.00 | 94 | 1017.7 |
| 20260903052018 | 63 | 0 | 0.0 | 0.0 | 0.00 | 0.00 | 0.00 | 93 | 1017.9 |
| 20260903051540 | 63 | 0 | 0.0 | 0.0 | 0.00 | 0.00 | 0.00 | 93 | 1017.9 |
| 20260903051019 | 63 | 0 | 0.0 | 0.0 | 0.00 | 0.00 | 0.00 | 94 | 1017.9 |
| 20260903050520 | 63 | 0 | 0.0 | 0.0 | 0.00 | 0.00 | 0.00 | 94 | 1018.0 |
| 20260903050045 | 63 | 0 | 0.0 | 0.0 | 0.00 | 0.00 | 0.00 | 94 | 1018.0 |
| 20260903045523 | 63 | 0 | 0.0 | 0.0 | 0.00 | 0.00 | 0.00 | 93 | 1017.9 |
| 20260903045024 | 63 | 0 | 0.0 | 0.0 | 0.00 | 0.00 | 0.00 | 93 | 1018.0 |
| 20260903044542 | 63 | 0 | 0.0 | 0.0 | 0.00 | 0.00 | 0.00 | 92 | 1017.9 |
| 20260903044027 | 63 | 0 | 0.0 | 2.0 | 0.00 | 0.00 | 0.00 | 91 | 1017.9 |
| 20260903043520 | 63 | 0 | 0.0 | 2.0 | 0.00 | 0.00 | 0.00 | 90 | 1018.0 |
| 20260903043041 | 63 | 65 | 0.0 | 2.0 | 0.00 | 0.00 | 0.00 | 90 | 1018.0 |
| 20260903042520 | 63 | 0 | 0.0 | 2.0 | 0.00 | 0.00 | 0.00 | 92 | 1018.0 |
| 20260903042017 | 63 | 0 | 0.0 | 1.0 | 0.00 | 0.00 | 0.00 | 92 | 1017.9 |
| 20260903041541 | 63 | 0 | 0.0 | 2.0 | 0.00 | 0.00 | 0.00 | 92 | 1018.0 |
| 20260903041023 | 63 | 0 | 1.0 | 2.0 | 0.00 | 0.00 | 0.00 | 92 | 1018.1 |
| 20260903040519 | 63 | 0 | 1.0 | 2.0 | 0.00 | 0.00 | 0.00 | 91 | 1018.0 |
| 20260903040044 | 63 | 7 | 0.0 | 2.0 | 0.00 | 0.00 | 0.00 | 90 | 1018.1 |
| 20260903035523 | 63 | 67 | 1.0 | 2.0 | 0.00 | 0.00 | 0.00 | 90 | 1018.1 |
| 20260903035024 | 64 | 71 | 0.0 | 1.0 | 0.00 | 0.00 | 0.00 | 90 | 1018.2 |
| 20260903034541 | 64 | 0 | 0.0 | 0.0 | 0.00 | 0.00 | 0.00 | 89 | 1018.3 |
| 20260903034022 | 64 | 0 | 0.0 | 1.0 | 0.00 | 0.00 | 0.00 | 88 | 1018.4 |
| 20260903033520 | 64 | 75 | 0.0 | 2.0 | 0.00 | 0.00 | 0.00 | 88 | 1018.4 |
| 20260903033044 | 64 | 73 | 0.0 | 2.0 | 0.00 | 0.00 | 0.00 | 86 | 1018.4 |
| 20260903032520 | 64 | 0 | 0.0 | 1.0 | 0.00 | 0.00 | 0.00 | 87 | 1018.4 |
| 20260903032028 | 65 | 55 | 0.0 | 4.0 | 0.00 | 0.00 | 0.00 | 86 | 1018.5 |
| 20260903031545 | 65 | 0 | 1.0 | 4.0 | 0.00 | 0.00 | 0.00 | 86 | 1018.6 |
| 20260903031029 | 65 | 78 | 0.0 | 4.0 | 0.00 | 0.00 | 0.00 | 87 | 1018.6 |
| 20260903030524 | 65 | 174 | 1.0 | 7.0 | 0.00 | 0.00 | 0.00 | 86 | 1018.6 |
| 20260903030049 | 64 | 122 | 0.0 | 7.0 | 0.00 | 0.00 | 0.00 | 87 | 1018.7 |
| 20260903025520 | 64 | 0 | 0.0 | 3.0 | 0.00 | 0.00 | 0.00 | 87 | 1018.8 |
| 20260903025018 | 64 | 13 | 0.0 | 3.0 | 0.00 | 0.00 | 0.00 | 89 | 1018.8 |
| 20260903024540 | 64 | 15 | 0.0 | 3.0 | 0.00 | 0.00 | 0.00 | 88 | 1018.8 |
| 20260903024019 | 64 | 211 | 1.0 | 3.0 | 0.00 | 0.00 | 0.00 | 88 | 1018.6 |
| 20260903023521 | 64 | 0 | 0.0 | 2.0 | 0.00 | 0.00 | 0.00 | 88 | 1018.7 |
| 20260903023046 | 64 | 317 | 0.0 | 3.0 | 0.00 | 0.00 | 0.00 | 88 | 1018.8 |
| 20260903022520 | 64 | 308 | 1.0 | 3.0 | 0.00 | 0.00 | 0.00 | 90 | 1019.2 |
| 20260903022027 | 64 | 7 | 0.0 | 2.0 | 0.00 | 0.00 | 0.00 | 90 | 1019.1 |
| 20260903021548 | 64 | 340 | 1.0 | 3.0 | 0.00 | 0.00 | 0.00 | 89 | 1019.4 |
| 20260903021021 | 64 | 23 | 1.0 | 3.0 | 0.00 | 0.00 | 0.00 | 90 | 1019.5 |
| 20260903020518 | 64 | 1 | 1.0 | 1.0 | 0.00 | 0.00 | 0.00 | 93 | 1019.5 |
| 20260903020038 | 64 | 356 | 0.0 | 3.0 | 0.00 | 0.00 | 0.00 | 93 | 1019.5 |
| 20260903015524 | 64 | 354 | 0.0 | 3.0 | 0.00 | 0.00 | 0.00 | 93 | 1019.7 |
| 20260903015022 | 64 | 37 | 1.0 | 3.0 | 0.00 | 0.00 | 0.00 | 92 | 1019.6 |
| 20260903014551 | 64 | 4 | 0.0 | 2.0 | 0.00 | 0.00 | 0.00 | 94 | 1019.6 |
| 20260903014025 | 64 | 358 | 0.0 | 2.0 | 0.00 | 0.00 | 0.00 | 94 | 1019.7 |
| 20260903013524 | 64 | 358 | 0.0 | 2.0 | 0.00 | 0.00 | 0.00 | 94 | 1019.8 |
| 20260903013040 | 64 | 1 | 0.0 | 2.0 | 0.00 | 0.00 | 0.00 | 95 | 1019.9 |
| 20260903012517 | 64 | 3 | 0.0 | 1.0 | 0.00 | 0.00 | 0.00 | 95 | 1019.9 |
| 20260903012019 | 64 | 0 | 0.0 | 1.0 | 0.00 | 0.00 | 0.00 | 94 | 1019.9 |
| 20260903011555 | 64 | 0 | 0.0 | 1.0 | 0.00 | 0.00 | 0.00 | 95 | 1019.9 |
| 20260903011021 | 64 | 0 | 0.0 | 1.0 | 0.00 | 0.00 | 0.00 | 94 | 1019.8 |
| 20260903010524 | 64 | 0 | 0.0 | 1.0 | 0.00 | 0.00 | 0.00 | 94 | 1020.0 |
| 20260903010046 | 64 | 0 | 0.0 | 1.0 | 0.00 | 0.00 | 0.00 | 94 | 1019.8 |
| 20260903005521 | 64 | 338 | 0.0 | 1.0 | 0.00 | 0.00 | 0.00 | 94 | 1020.0 |
| 20260903005020 | 64 | 331 | 0.0 | 1.0 | 0.00 | 0.00 | 0.00 | 94 | 1020.0 |
| 20260903004541 | 64 | 0 | 0.0 | 1.0 | 0.00 | 0.00 | 0.00 | 94 | 1019.8 |
| 20260903004018 | 64 | 333 | 0.0 | 1.0 | 0.00 | 0.00 | 0.00 | 93 | 1019.9 |
| 20260903003518 | 64 | 319 | 0.0 | 1.0 | 0.00 | 0.00 | 0.00 | 93 | 1019.8 |
| 20260903003048 | 65 | 0 | 0.0 | 2.0 | 0.00 | 0.00 | 0.00 | 93 | 1019.7 |
| 20260903002517 | 65 | 0 | 0.0 | 2.0 | 0.00 | 0.00 | 0.00 | 92 | 1019.7 |
| 20260903002023 | 65 | 0 | 0.0 | 2.0 | 0.00 | 0.00 | 0.00 | 92 | 1019.6 |
| 20260903001542 | 65 | 246 | 0.0 | 2.0 | 0.00 | 0.00 | 0.00 | 90 | 1019.3 |
| 20260903001019 | 65 | 347 | 1.0 | 4.0 | 0.00 | 0.00 | 0.00 | 91 | 1019.2 |
| 20260903000524 | 65 | 263 | 1.0 | 4.0 | 0.00 | 0.00 | 0.00 | 92 | 1019.0 |
| 20260903000050 | 64 | 248 | 2.0 | 4.0 | 0.00 | 0.00 | 0.00 | 93 | 1018.8 |
| 20260902235518 | 64 | 0 | 1.0 | 3.0 | 0.00 | 0.00 | 0.00 | 94 | 1018.9 |
| 20260902235021 | 64 | 0 | 0.0 | 1.0 | 0.00 | 0.00 | 0.00 | 95 | 1018.7 |
| 20260902234543 | 64 | 356 | 0.0 | 2.0 | 0.00 | 0.00 | 0.00 | 94 | 1018.9 |
| 20260902234022 | 65 | 356 | 0.0 | 2.0 | 0.00 | 0.00 | 0.00 | 94 | 1019.1 |
| 20260902233517 | 65 | 1 | 1.0 | 2.0 | 0.00 | 0.00 | 0.00 | 94 | 1019.3 |
| 20260902233050 | 65 | 0 | 1.0 | 2.0 | 0.00 | 0.00 | 0.00 | 94 | 1019.4 |
| 20260902232521 | 65 | 316 | 0.0 | 2.0 | 0.00 | 0.00 | 0.00 | 93 | 1019.6 |
| 20260902232023 | 65 | 19 | 0.0 | 3.0 | 0.00 | 0.00 | 0.00 | 93 | 1019.7 |
| 20260902231542 | 65 | 1 | 1.0 | 3.0 | 0.00 | 0.00 | 0.00 | 93 | 1019.7 |
| 20260902231018 | 65 | 342 | 0.0 | 2.0 | 0.00 | 0.00 | 0.00 | 93 | 1019.8 |
| 20260902230518 | 65 | 0 | 0.0 | 0.0 | 0.00 | 0.00 | 0.00 | 93 | 1019.9 |
| 20260902230056 | 66 | 0 | 0.0 | 0.0 | 0.00 | 0.00 | 0.00 | 93 | 1020.3 |
| 20260902225517 | 66 | 0 | 0.0 | 0.0 | 0.00 | 0.00 | 0.00 | 93 | 1020.4 |
| 20260902225017 | 66 | 0 | 0.0 | 0.0 | 0.00 | 0.00 | 0.00 | 93 | 1020.4 |
| 20260902224539 | 66 | 0 | 0.0 | 0.0 | 0.00 | 0.00 | 0.00 | 92 | 1020.7 |
| 20260902224020 | 66 | 0 | 0.0 | 0.0 | 0.00 | 0.00 | 0.00 | 92 | 1020.7 |
| 20260902223519 | 66 | 0 | 0.0 | 0.0 | 0.00 | 0.00 | 0.00 | 92 | 1020.8 |
| 20260902223042 | 66 | 0 | 0.0 | 0.0 | 0.00 | 0.00 | 0.00 | 93 | 1020.9 |
| 20260902222519 | 66 | 0 | 0.0 | 0.0 | 0.00 | 0.00 | 0.00 | 92 | 1020.9 |
| 20260902222018 | 66 | 0 | 0.0 | 0.0 | 0.00 | 0.00 | 0.00 | 91 | 1020.9 |
| 20260902221541 | 66 | 0 | 0.0 | 0.0 | 0.00 | 0.00 | 0.00 | 92 | 1021.0 |
| 20260902221019 | 66 | 0 | 0.0 | 0.0 | 0.00 | 0.00 | 0.00 | 92 | 1021.3 |
| 20260902220517 | 66 | 0 | 0.0 | 1.0 | 0.00 | 0.00 | 0.00 | 92 | 1021.2 |
| 20260902220054 | 66 | 0 | 0.0 | 1.0 | 0.00 | 0.00 | 0.00 | 92 | 1021.2 |
| 20260902215520 | 66 | 0 | 0.0 | 1.0 | 0.00 | 0.00 | 0.00 | 92 | 1021.2 |
| 20260902215021 | 66 | 0 | 0.0 | 1.0 | 0.00 | 0.00 | 0.00 | 92 | 1021.2 |
| 20260902214558 | 66 | 92 | 0.0 | 3.0 | 0.00 | 0.00 | 0.00 | 91 | 1021.2 |
| 20260902214018 | 66 | 0 | 0.0 | 3.0 | 0.00 | 0.00 | 0.00 | 91 | 1021.4 |
| 20260902213519 | 66 | 335 | 0.0 | 3.0 | 0.00 | 0.00 | 0.00 | 90 | 1021.5 |
| 20260902213044 | 66 | 20 | 0.0 | 2.0 | 0.00 | 0.00 | 0.00 | 90 | 1021.5 |
| 20260902212523 | 67 | 39 | 0.0 | 2.0 | 0.00 | 0.00 | 0.00 | 90 | 1021.6 |
| 20260902212025 | 67 | 39 | 1.0 | 4.0 | 0.00 | 0.00 | 0.00 | 90 | 1021.6 |
| 20260902211543 | 67 | 41 | 0.0 | 4.0 | 0.00 | 0.00 | 0.00 | 86 | 1021.4 |
| 20260902211023 | 68 | 38 | 1.0 | 4.0 | 0.00 | 0.00 | 0.00 | 84 | 1021.1 |
| 20260902210524 | 68 | 0 | 0.0 | 2.0 | 0.00 | 0.00 | 0.00 | 85 | 1021.3 |
| 20260902210042 | 67 | 71 | 0.0 | 1.0 | 0.00 | 0.00 | 0.00 | 87 | 1021.2 |
| 20260902205522 | 67 | 0 | 0.0 | 3.0 | 0.00 | 0.00 | 0.00 | 89 | 1021.4 |
| 20260902205025 | 67 | 0 | 0.0 | 3.0 | 0.00 | 0.00 | 0.00 | 89 | 1021.3 |
| 20260902204541 | 67 | 347 | 1.0 | 3.0 | 0.00 | 0.00 | 0.00 | 86 | 1021.2 |
| 20260902204023 | 67 | 0 | 0.0 | 2.0 | 0.00 | 0.00 | 0.00 | 89 | 1021.3 |
| 20260902203523 | 67 | 326 | 1.0 | 1.0 | 0.00 | 0.00 | 0.00 | 89 | 1021.1 |
| 20260902203046 | 67 | 322 | 0.0 | 2.0 | 0.00 | 0.00 | 0.00 | 88 | 1021.2 |
| 20260902202523 | 67 | 322 | 1.0 | 3.0 | 0.00 | 0.00 | 0.00 | 88 | 1021.4 |
| 20260902202024 | 67 | 320 | 0.0 | 3.0 | 0.00 | 0.00 | 0.00 | 84 | 1021.4 |
| 20260902201546 | 67 | 226 | 1.0 | 3.0 | 0.00 | 0.00 | 0.00 | 84 | 1021.5 |
| 20260902201023 | 67 | 282 | 0.0 | 3.0 | 0.00 | 0.00 | 0.00 | 85 | 1021.4 |
| 20260902200521 | 67 | 271 | 1.0 | 3.0 | 0.00 | 0.00 | 0.00 | 84 | 1021.3 |
| 20260902200040 | 67 | 245 | 1.0 | 3.0 | 0.00 | 0.00 | 0.00 | 87 | 1021.3 |
| 20260902195524 | 67 | 22 | 1.0 | 3.0 | 0.00 | 0.00 | 0.00 | 86 | 1021.3 |
| 20260902195022 | 67 | 34 | 0.0 | 3.0 | 0.00 | 0.00 | 0.00 | 86 | 1021.5 |
| 20260902194543 | 68 | 245 | 1.0 | 3.0 | 0.00 | 0.00 | 0.00 | 85 | 1021.4 |
| 20260902194021 | 68 | 342 | 0.0 | 2.0 | 0.00 | 0.00 | 0.00 | 84 | 1021.5 |
| 20260902193523 | 68 | 333 | 1.0 | 3.0 | 0.00 | 0.00 | 0.00 | 84 | 1021.5 |
| 20260902193043 | 68 | 299 | 0.0 | 3.0 | 0.00 | 0.00 | 0.00 | 84 | 1021.7 |
| 20260902192519 | 68 | 0 | 0.0 | 3.0 | 0.00 | 0.00 | 0.00 | 86 | 1021.7 |
| 20260902192024 | 68 | 176 | 1.0 | 3.0 | 0.00 | 0.00 | 0.00 | 85 | 1021.7 |
| 20260902191546 | 67 | 312 | 0.0 | 1.0 | 0.00 | 0.00 | 0.00 | 85 | 1021.6 |
| 20260902191023 | 68 | 0 | 0.0 | 0.0 | 0.00 | 0.00 | 0.00 | 88 | 1021.7 |
| 20260902190526 | 68 | 0 | 0.0 | 0.0 | 0.00 | 0.00 | 0.00 | 86 | 1021.8 |
| 20260902190046 | 68 | 0 | 0.0 | 0.0 | 0.00 | 0.00 | 0.00 | 86 | 1021.8 |
| 20260902185521 | 69 | 0 | 0.0 | 1.0 | 0.00 | 0.00 | 0.00 | 84 | 1022.0 |
| 20260902185026 | 69 | 0 | 0.0 | 1.0 | 0.00 | 0.00 | 0.00 | 79 | 1022.1 |
| 20260902184545 | 70 | 265 | 0.0 | 3.0 | 0.00 | 0.00 | 0.00 | 78 | 1022.1 |